Regional Weather Roundup
Issued by NWS Charleston, SC

Current Version | Previous Version | Graphics & Text | Print | Product List | Glossary On
Versions: 1 2 3 4 5 6 7 8 9 10 11 12 13 14 15 16 17 18 19 20 21 22 23 24 25 26 27 28 29 30 31 32 33 34 35 36 37 38 39 40 41 42 43 44 45 46 47 48 49 50
000
ASUS42 KCHS 211225
RWRCHS

REGIONAL WEATHER ROUNDUP
NATIONAL WEATHER SERVICE CHARLESTON SC
800 AM EDT THU AUG 21 2014

NOTE: "FAIR" INDICATES FEW OR NO CLOUDS BELOW 12,000 FEET WITH NO
SIGNIFICANT WEATHER AND/OR OBSTRUCTIONS TO VISIBILITY.

NOT ALL STATIONS ARE QUALITY CONTROLLED BY THE NATIONAL
WEATHER SERVICE. USE DATA WITH CAUTION...ESPECIALLY
DEWPOINT OBSERVATIONS.

SCZ027-030-031-034>040-042>050-211300-
...SOUTH CAROLINA...

CITY           SKY/WX    TMP DP  RH WIND       PRES   REMARKS
N CHARLESTON   MOSUNNY   78  71  79 W6        30.06R
6HR MIN TEMP:  76; 6HR MAX TEMP:  80;

WATERFRONT PRK   N/A     77 N/A N/A W6          N/A
FORT JOHNSON   NOT AVBL
MOUNT PLEASANT FAIR      79  73  83 W3        30.06R HAZE
JOHNS ISLAND   SUNNY     79  75  89 CALM      30.07R
PINOPOLIS        N/A     79  72  78 W9        29.97R
MONCKS CORNER    N/A     75  73  94 CALM      30.06R
SUMMERVILLE    FAIR      73  73 100 W6        30.08R
BEAUFORT MCAS  PTSUNNY   77  71  82 N6        30.07R
6HR MIN TEMP:  75; 6HR MAX TEMP:  78;

BEAUFORT ARPT  FAIR      77  72  83 W7        30.07R
HILTON HEAD IS SUNNY     77  72  83 SW6       30.08R
GEORGETOWN     NOT AVBL
WALTERBORO     SUNNY     77  77 100 NW5       30.08R
ORANGEBURG     SUNNY     75  69  81 NW3       30.07R HAZE
6HR MIN TEMP:  72; 6HR MAX TEMP:  77;

BARNWELL       FAIR      77  70  78 CALM      30.09R
AIKEN          FAIR      73  73 100 W3        30.13R
MANNING        FAIR      77  77 100 CALM      30.06R
KINGSTREE      NOT AVBL
COLUMBIA       MOSUNNY   78  69  73 NW6       30.07R
6HR MIN TEMP:  73; 6HR MAX TEMP:  80;

SUMTER         SUNNY     77  72  85 NW5       30.05R
6HR MIN TEMP:  75; 6HR MAX TEMP:  80;

FLORENCE       SUNNY     78  73  84 NW6       30.05R
6HR MIN TEMP:  73; 6HR MAX TEMP:  78;

MYRTLE BEACH   SUNNY     79  73  83 SW5       30.04R
N MYRTLE BEACH SUNNY     78  76  93 CALM      30.04R
6HR MIN TEMP:  75; 6HR MAX TEMP:  78;


$$

GAZ063-065-086>088-099>101-113>116-118-119-134-136>141-150-211300-
...GEORGIA...

CITY           SKY/WX    TMP DP  RH WIND       PRES   REMARKS
SAVANNAH ARPT  PTSUNNY   74  69  85 W3        30.09R
6HR MIN TEMP:  73; 6HR MAX TEMP:  77;

HUNTER AAF     SUNNY     73  71  92 W5        30.07R
6HR MIN TEMP:  72; 6HR MAX TEMP:  76;

FORT STEWART   SUNNY     73  69  89 W5        30.08R
6HR MIN TEMP:  71; 6HR MAX TEMP:  76;

STATESBORO     NOT AVBL
SYLVANIA       SUNNY     74  73  93 NW3       30.10R
CLAXTON        FAIR      73  73 100 W3        30.09R
THOMSON        SUNNY     72  72 100 CALM      30.14R
AUGUSTA-BUSH   SUNNY     74  68  81 NW6       30.08R
6HR MIN TEMP:  71; 6HR MAX TEMP:  75;

AUGUSTA-DANIEL SUNNY     75  68  78 NW5       30.09R
SWAINSBORO     FAIR      73  73 100 NW5       30.11R
VIDALIA          N/A     75  72  88 W3        30.11R
ALMA           SUNNY     74  70  87 NW7       30.11R
6HR MIN TEMP:  71; 6HR MAX TEMP:  77;

WAYCROSS       SUNNY     80  75  85 N3        30.11R
JESUP            N/A     75  72  88 CALM      30.11R
BRUNSWICK      MOSUNNY   77  70  78 W5        30.11R
SAINT SIMONS   SUNNY     78  70  76 W5        30.09R
6HR MIN TEMP:  75; 6HR MAX TEMP:  79;


$$

SCZ027-028-034-036>038-045-046-048>050-GAZ119-141-211300-
...LAKE AND SUPPLEMENTAL COASTAL OBSERVATIONS...

STATION/POSITION TIME  TEMP    WIND        PRES    WAVE   SWELL
                       AIR SEA DIR/SP/G            HT/PER HT/PER/DIR
                 (UTC) (F)     (DEG/KT/KT) (MB)    (FT/S) (FT/S/D)
UPR LAKE MARION  NOT AVBL
WINYAH BAY       1200   78     280/  1     1017.0S
LAKE MURRAY      1100   76     290/  2/  5 1017.6R
ACE BASIN NERRS  1200   75     300/  1     1018.0S
FORT PULASKI     1200   77     290/  9/ 11 1018.9R
SAPELO ISLAND    1200   78     270/  4     1019.0S

$$

ANZ835-935-AMZ111-154-330-350-352-354-374-450-454-472-211300-
...C-MAN AND BUOY OBSERVATIONS...

STATION/POSITION TIME  TEMP    WIND        PRES    WAVE   SWELL
                       AIR SEA DIR/SP/G            HT/PER HT/PER/DIR
                 (UTC) (F)     (DEG/KT/KT) (MB)    (FT/S) (FT/S/D)
FOLLY BEACH CMAN 1200   78     280/  5/  8 1018.2R
BUOY 41004       1200   84 84  270/  8/ 10 1016.6R   2/ 4   2/ 4
BUOY 41008       1200   81 85  270/ 10/ 12 1018.4R   2/ 4   2/110/ 8
5E ST. MARYS GA  1200      82                N/A     1/10
FRYING PAN BUOY  NOT AVBL
BUOY 41025       1200   80     180/  6/  8 1017.4R   3/ 8   2/ 60/ 8
CAPE LOOKOUT NC  1200   81     220/  3/  4 1017.5R
BUOY 41002       1113   81 81  250/ 14/ 16 1018.7R   3/ 5   2/ 60/ 8
BUOY 41010       1200   84 85  240/ 10/ 10 1019.6R   2/ 3   2/110/ 8
BUOY 41012       NOT AVBL
ST AUGUSTINE FL  1200   79     240/  3/  4 1020.3R
CAPERS NEARSHORE 1100   81     240/  8/ 10   N/A
FRIPP NEARSHORE  NOT AVBL


$$



USA.gov is the U.S. government's official web portal to all federal, state and local government web resources and services.